Change the Weather History Date:

Monday, November 12, 2012

  Actual Average Record
Temperature  
Mean Temperature 56 °F 42 °F  
Max Temperature 65 °F 49 °F 73 °F (1909)
Min Temperature 47 °F 34 °F 17 °F (1926)
Degree Days  
Heating Degree Days 9 23  
Month to date heating degree days 281 260  
Since 1 July heating degree days 780 921  
Cooling Degree Days 0 0  
Month to date cooling degree days 0 0  
Year to date cooling degree days 674 471  
Growing Degree Days 6 (Base 50)    
Moisture  
Dew Point 49 °F    
Average Humidity 75    
Maximum Humidity 93    
Minimum Humidity 56    
Precipitation  
Precipitation 0.00 in 0.14 in 2.93 in (1947)
Month to date precipitation 0.77 1.68  
Year to date precipitation 38.35 41.65  
Sea Level Pressure  
Sea Level Pressure 30.37 in    
Wind  
Wind Speed 13 mph (SSW)    
Max Wind Speed 21 mph    
Max Gust Speed 29 mph    
Visibility 9 miles    
Events      
T = Trace of Precipitation, MM = Missing Value Source: NWS Daily Summary

Daily Weather History Graph

Daily Weather History Graph

Search for Another Location

Airport or City:

Trip Planner

Search our weather history database for the weather conditions in past years. The results will help you decide how hot, cold, wet, or windy it might be!

Date:

Astronomy

Nov. 12, 2012 Rise Set
Actual Time 6:34 AM EST 4:28 PM EST
Civil Twilight 6:04 AM EST 4:58 PM EST
Nautical Twilight 5:31 AM EST 5:31 PM EST
Astronomical Twilight 4:58 AM EST 6:04 PM EST
Moon 4:55 AM EST (11/12) 3:31 PM EST (11/12)
Length of Visible Light 10h 53m
Length of Day
9h 53m
Waning Crescent, 2% of the Moon is Illuminated
Nov 12
Waning Crescent
Nov 13
New
Nov 20
First Quarter
Nov 28
Full
Dec 6
Last Quarter

Hourly Weather History & Observations

Time (EST) Temp. Dew Point Humidity Pressure Visibility Wind Dir Wind Speed Gust Speed Precip Events Conditions
12:54 AM 51.8 °F 39.2 °F 62% 30.44 in 10.0 mi WSW 17.3 mph - N/A   Clear
1:54 AM 51.1 °F 39.9 °F 66% 30.45 in 10.0 mi WSW 12.7 mph - N/A   Clear
2:54 AM 51.1 °F 39.0 °F 63% 30.45 in 10.0 mi WSW 15.0 mph - N/A   Clear
3:54 AM 51.1 °F 42.1 °F 71% 30.45 in 10.0 mi SW 15.0 mph 20.7 mph N/A   Clear
4:54 AM 50.0 °F 44.1 °F 80% 30.45 in 10.0 mi WSW 12.7 mph - N/A   Clear
5:54 AM 50.0 °F 43.0 °F 77% 30.44 in 10.0 mi SW 12.7 mph - N/A   Clear
6:54 AM 48.0 °F 42.1 °F 80% 30.46 in 10.0 mi SW 9.2 mph - N/A   Clear
7:54 AM 48.9 °F 44.1 °F 83% 30.47 in 10.0 mi SSW 11.5 mph - N/A   Clear
8:34 AM 48.2 °F 44.6 °F 87% 30.45 in 5.0 mi SSW 12.7 mph - N/A   Partly Cloudy
8:41 AM 48.2 °F 46.4 °F 93% 30.45 in 2.5 mi South 10.4 mph - N/A   Partly Cloudy
8:54 AM 48.9 °F 46.0 °F 90% 30.47 in 2.5 mi South 9.2 mph - N/A   Partly Cloudy
9:36 AM 51.8 °F 48.2 °F 88% 30.45 in 2.5 mi SSW 10.4 mph - N/A   Mostly Cloudy
9:54 AM 53.1 °F 48.9 °F 86% 30.46 in 8.0 mi SSW 12.7 mph 18.4 mph N/A   Overcast
10:15 AM 53.6 °F 48.2 °F 82% 30.45 in 10.0 mi SSW 12.7 mph - N/A   Scattered Clouds
10:54 AM 57.9 °F 48.9 °F 72% 30.44 in 10.0 mi SSW 18.4 mph 25.3 mph N/A   Partly Cloudy
11:54 AM 61.0 °F 48.0 °F 62% 30.42 in 10.0 mi SSW 16.1 mph 23.0 mph N/A   Clear
12:54 PM 63.0 °F 48.0 °F 58% 30.40 in 10.0 mi South 13.8 mph 20.7 mph N/A   Clear
1:54 PM 64.0 °F 48.0 °F 56% 30.39 in 10.0 mi SSW 16.1 mph 25.3 mph N/A   Clear
2:54 PM 64.0 °F 48.9 °F 58% 30.37 in 10.0 mi South 10.4 mph - N/A   Mostly Cloudy
3:54 PM 62.1 °F 50.0 °F 65% 30.36 in 10.0 mi SSW 10.4 mph 19.6 mph N/A   Mostly Cloudy
4:54 PM 59.0 °F 52.0 °F 78% 30.35 in 10.0 mi South 11.5 mph - N/A   Partly Cloudy
5:35 PM 60.8 °F 53.6 °F 77% 30.34 in 10.0 mi South 13.8 mph - N/A   Overcast
5:54 PM 59.0 °F 53.1 °F 81% 30.34 in 10.0 mi SSW 10.4 mph - N/A   Overcast
6:43 PM 59.0 °F 53.6 °F 82% 30.32 in 10.0 mi South 15.0 mph - N/A   Overcast
6:54 PM 59.0 °F 53.1 °F 81% 30.32 in 10.0 mi South 12.7 mph 19.6 mph N/A   Overcast
7:19 PM 59.0 °F 51.8 °F 77% 30.31 in 10.0 mi South 11.5 mph - N/A   Overcast
7:29 PM 57.2 °F 51.8 °F 82% 30.30 in 10.0 mi South 13.8 mph 19.6 mph N/A   Mostly Cloudy
7:43 PM 59.0 °F 53.6 °F 82% 30.30 in 10.0 mi South 12.7 mph 21.9 mph N/A   Overcast
7:51 PM 57.2 °F 53.6 °F 88% 30.30 in 10.0 mi South 13.8 mph - N/A   Overcast
7:54 PM 57.9 °F 53.1 °F 84% 30.31 in 10.0 mi South 12.7 mph - N/A   Overcast
8:06 PM 57.2 °F 53.6 °F 88% 30.29 in 10.0 mi South 15.0 mph - N/A   Overcast
8:25 PM 57.2 °F 53.6 °F 88% 30.29 in 10.0 mi South 11.5 mph - N/A   Overcast
8:34 PM 57.2 °F 53.6 °F 88% 30.28 in 10.0 mi South 11.5 mph 18.4 mph N/A   Overcast
8:41 PM 57.2 °F 53.6 °F 88% 30.28 in 10.0 mi South 15.0 mph 19.6 mph N/A   Overcast
8:54 PM 57.9 °F 54.0 °F 87% 30.30 in 10.0 mi South 16.1 mph - N/A   Overcast
9:54 PM 59.0 °F 55.0 °F 87% 30.27 in 10.0 mi South 13.8 mph 24.2 mph N/A   Overcast
10:54 PM 60.1 °F 55.9 °F 86% 30.25 in 10.0 mi South 16.1 mph 24.2 mph N/A   Overcast
11:54 PM 61.0 °F 55.9 °F 83% 30.23 in 10.0 mi SSW 16.1 mph 24.2 mph N/A   Overcast